Showing default

CONNECTA IOT-16, 67390

Orbit data source: Space-Track

CONNECTA IOT-16, 67390 is a payload satellite owned by Plan-S (TR) in SSO that was launched on Sun, 11 Jan 2026 UTC via an FALCON 9 launch vehicle from the Air Force Western Test Range (AFWTR). Payload-class satellites include a variety of spacecraft equipped with specific instruments for various scientific and technological missions. These include communications satellites like Starlink; space stations such as the ISS; scientific satellites like the Hubble; Earth observation satellites from companies like Planet Labs, Umbra, and HawkEye 360; GPS; miniature CubeSats for education and research; and military/defense satellites.

Loading next visibility...
Identifier
67390, 2026-004AD
Orbit
SSO
Country
Flag of TRTR / TURK
Related business
Manufacturer
Plan-S
Mission
Operational Commercial Communications
Bus & Motor
CUBESAT 6U, Unknown motor
Mass
10 kg wet, 10 kg dry
Launch date (UTC)
2026-01-11 (4 months ago)
Launch vehicle
FALCON 9
Launch site
Air Force Western Test Range (AFWTR)
Object type
Payload
Rocket body
Debris
Shape & HBR
Box, 2.2 m
Radar Cross Section
0.080 m²

Expand to show TLE details & history
Last TLE update: 6 hours ago

TLE from 6 hours ago
0 CONNECTA IOT-16
1 67390U 26004AD  26146.55705517  .00002974  00000-0  15067-3 0  9995
2 67390  97.4582 145.8213 0005627  69.1169 291.0667 15.17740837 20464
Epoch: 2026-05-26T13:22Z
TLE epoch observation values (Epoch: 2026-05-26T13:22:09.566Z)
Latitude
-0.00001°
Longitude
61.15266°
Altitude
514.364 km
Speed
7.607 km/s
True Right ascension
09h 43m 17s
True Declination
0° 00' 00"
Sunlit
Object was in daylight at epoch
Visualization orbit readout
Latitude
Unknown
Longitude
Unknown
Altitude
Unknown
Speed
Unknown
Apparent Right ascension
Unknown
Apparent Declination
Unknown
Sunlit
N/A
Visualization observer readout
Local Sidereal Time
04:32:35
Azimuth
Unknown
Elevation
Unknown
Doppler factor
Unknown
Orbital elements
Apogee altitude
513.517 km
Perigee altitude
505.765 km
Semi-major axis
6,887.778 km
Eccentricity
0.00056
Inclination
97.4582°
RAAN
145.8213°
Arg. of periapsis
69.1169°
True anomaly
291.00651°
Mean anomaly
291.0667°
Eccentric anomaly
291.03661°
Mean motion
3.79686 °/min
Orbital period
94.82 mins
BSTAR
0.00015067
Loading maneuver chart data...
Computing Atmospheric mass density...
Loading historical data...
Loading historical data...
Loading historical data...
Loading historical data...
Loading historical data...
Loading historical data...
Loading historical data...

Documentation

Showing up to 5 results
|